Location: Famechon
(49.7599°N, 2.0615°E)
Time: 22:27:07
(UTC+00:00)

Cosmos 1741 Rocket - Pass Details

Date: 01 April 2025
Orbit: 758 x 778 km, 74.0° (Epoch: 28 April)

Event Time Altitude Azimuth Distance (km) Brightness Sun altitude
Rises 23:04:40 0° 341° (NNW) 3,238 8.3 -34.2°
Reaches altitude 10° 23:07:21 10° 352° (N) 2,311 7.3 -34.3°
Enters shadow 23:10:44 27° 30° (NNE) 1,460 5.7 -34.5°
